This is the latest recevied weather packets stored in our database for station/object NL3D. If no packets are shown the sender has not sent any weather packets the latest 1 day(s).
| Time | Temp. | Humidity | Pressure | Rain* | Wind** | Luminosity | Snow |
|---|---|---|---|---|---|---|---|
| 1777989668 | 3.33° C | 99% | 1003.4 hPa | 0 mm | 0.45 m/s, 25° | 3 W/m² | - |
| 1777989363 | 3.33° C | 99% | 1003.4 hPa | 0 mm | 1.79 m/s, 109° | 2 W/m² | - |
| 1777989060 | 3.33° C | 99% | 1003.5 hPa | 0 mm | 0.89 m/s, 48° | 1 W/m² | - |
| 1777988756 | 3.33° C | 99% | 1003.4 hPa | 0 mm | 0.89 m/s, 169° | 1 W/m² | - |
| 1777988454 | 2.78° C | 99% | 1003.3 hPa | 0 mm | 0.89 m/s, 85° | 1 W/m² | - |
| 1777988150 | 2.78° C | 99% | 1003.4 hPa | 0 mm | 1.34 m/s, 102° | 0 W/m² | - |
| 1777987846 | 2.78° C | 99% | 1003.2 hPa | 0 mm | 0.89 m/s, 138° | 0 W/m² | - |
| 1777987543 | 2.78° C | 99% | 1003 hPa | 0 mm | 0.89 m/s, 88° | 0 W/m² | - |
| 1777987241 | 2.78° C | 99% | 1002.9 hPa | 0 mm | 1.34 m/s, 93° | 0 W/m² | - |
| 1777986937 | 2.78° C | 99% | 1003 hPa | 0 mm | 0.45 m/s, 129° | 0 W/m² | - |
| 1777986635 | 2.78° C | 99% | 1003.1 hPa | 0 mm | 0 m/s | 0 W/m² | - |
| 1777986333 | 2.78° C | 99% | 1003 hPa | 0 mm | 0.89 m/s, 115° | 0 W/m² | - |
| 1777986031 | 2.78° C | 99% | 1003 hPa | 0 mm | 0.89 m/s, 97° | 0 W/m² | - |
| 1777985727 | 2.78° C | 99% | 1003.1 hPa | 0 mm | 0.89 m/s, 77° | 0 W/m² | - |
| 1777985424 | 2.78° C | 99% | 1003.1 hPa | 0 mm | 0.89 m/s, 136° | 0 W/m² | - |
| 1777985121 | 2.78° C | 99% | 1003 hPa | 0 mm | 1.34 m/s, 67° | 0 W/m² | - |
| 1777984817 | 2.78° C | 99% | 1003.2 hPa | 0 mm | 1.79 m/s, 95° | 0 W/m² | - |
| 1777984514 | 2.78° C | 99% | 1003.1 hPa | 0 mm | 0 m/s | 0 W/m² | - |
| 1777984210 | 2.22° C | 99% | 1003.2 hPa | 0 mm | 0.89 m/s, 142° | 0 W/m² | - |
| 1777983907 | 2.22° C | 99% | 1003.2 hPa | 0 mm | 0.89 m/s, 113° | 0 W/m² | - |
| 1777983604 | 2.22° C | 99% | 1003.1 hPa | 0 mm | 1.34 m/s, 131° | 0 W/m² | - |
| 1777983300 | 2.22° C | 99% | 1003 hPa | 0 mm | 1.34 m/s, 100° | 0 W/m² | - |
| 1777982996 | 2.22° C | 99% | 1003.2 hPa | 0 mm | 0.89 m/s, 110° | 0 W/m² | - |
| 1777982693 | 2.22° C | 99% | 1003.1 hPa | 0 mm | 0.89 m/s, 125° | 0 W/m² | - |
| 1777982392 | 2.78° C | 99% | 1003.2 hPa | 0 mm | 0.45 m/s, 78° | 0 W/m² | - |
* Rain latest hour (hover to see other rain measurements)
** Current wind speed in m/s (hover to see current wind gust speed)